Weather History for Marion, IN

Change the Weather History Date:

Monday, September 16, 2013

  Actual Average (KMIE) Record (KMIE)
Temperature  
Mean Temperature 56 °F 66 °F  
Max Temperature 63 °F 77 °F 92 °F (1991)
Min Temperature 48 °F 54 °F 37 °F (1984)
Degree Days  
Heating Degree Days 10 3  
Month to date heating degree days 24  
Since 1 July heating degree days 34  
Cooling Degree Days 0 3  
Month to date cooling degree days 75  
Year to date cooling degree days 909  
Growing Degree Days 6 (Base 50)    
Moisture  
Dew Point 52 °F    
Average Humidity 84    
Maximum Humidity 96    
Minimum Humidity 61    
Precipitation  
Precipitation 0.09 in 0.09 in 0.41 in (1981)
Month to date precipitation 1.67  
Year to date precipitation 29.58  
Sea Level Pressure  
Sea Level Pressure 30.26 in    
Wind  
Wind Speed 4 mph (ENE)    
Max Wind Speed 10 mph    
Max Gust Speed -    
Visibility 7 miles    
Events Rain    
T = Trace of Precipitation, MM = Missing Value Source: NWS Daily Summary

Daily Weather History Graph

Daily Weather History Graph

Search for Another Location

Airport:

Trip Planner

Search our weather history database for the weather conditions in past years. The results will help you decide how hot, cold, wet, or windy it might be!

Date:

Astronomy

Sep. 16, 2013 Rise Set
Actual Time 7:24 AM EDT 7:49 PM EDT
Civil Twilight 6:57 AM EDT 8:16 PM EDT
Nautical Twilight 6:25 AM EDT 8:48 PM EDT
Astronomical Twilight 5:52 AM EDT 9:21 PM EDT
Moon 5:58 PM EDT (9/16) 4:09 AM EDT (9/16)
Length of Visible Light 13h 19m
Length of Day
12h 24m
Waxing Gibbous, 90% of the Moon is Illuminated
Sep 16
Waxing Gibbous
Sep 19
Full
Sep 26
Last Quarter
Oct 4
New
Oct 11
First Quarter

Hourly Weather History & Observations

Time (EDT) Temp. Dew Point Humidity Pressure Visibility Wind Dir Wind Speed Gust Speed Precip Events Conditions
12:15 AM 56.5 °F 55.0 °F 95% 30.13 in 5.0 mi ESE 5.8 mph - N/A Rain Light Rain
12:35 AM 56.3 °F 54.9 °F 95% 30.12 in 5.0 mi East 5.8 mph - N/A   Overcast
12:55 AM 56.3 °F 55.0 °F 96% 30.13 in 5.0 mi East 4.6 mph - 0.01 in   Overcast
1:15 AM 56.3 °F 54.9 °F 95% 30.13 in 7.0 mi ESE 4.6 mph - N/A   Overcast
1:35 AM 56.3 °F 54.9 °F 95% 30.13 in 7.0 mi East 4.6 mph - N/A   Overcast
1:55 AM 56.3 °F 54.9 °F 95% 30.14 in 5.0 mi Calm Calm - 0.01 in   Overcast
2:15 AM 56.3 °F 54.9 °F 95% 30.14 in 4.0 mi SE 3.5 mph - N/A   Overcast
2:35 AM 56.3 °F 54.9 °F 95% 30.14 in 5.0 mi East 3.5 mph - N/A   Overcast
2:55 AM 56.3 °F 55.0 °F 96% 30.14 in 7.0 mi Calm Calm - N/A   Overcast
3:15 AM 56.3 °F 55.0 °F 96% 30.15 in 5.0 mi Calm Calm - 0.01 in   Overcast
3:35 AM 56.5 °F 55.2 °F 96% 30.15 in 4.0 mi Calm Calm - 0.01 in   Overcast
3:55 AM 56.5 °F 55.4 °F 96% 30.16 in 5.0 mi NNE 3.5 mph - 0.01 in   Overcast
4:15 AM 56.5 °F 55.4 °F 96% 30.16 in 5.0 mi NNE 5.8 mph - N/A   Overcast
4:35 AM 56.1 °F 55.0 °F 96% 30.17 in 5.0 mi NNE 4.6 mph - 0.01 in   Overcast
4:55 AM 55.9 °F 54.9 °F 96% 30.17 in 5.0 mi NNE 5.8 mph - 0.01 in   Overcast
5:15 AM 55.9 °F 54.7 °F 96% 30.18 in 7.0 mi Calm Calm - N/A   Overcast
5:35 AM 56.1 °F 54.9 °F 96% 30.19 in 4.0 mi NNE 4.6 mph - N/A   Overcast
5:55 AM 55.9 °F 54.7 °F 96% 30.19 in 5.0 mi NE 4.6 mph - 0.01 in   Overcast
6:15 AM 55.8 °F 54.3 °F 95% 30.19 in 5.0 mi NNE 5.8 mph - N/A   Overcast
6:35 AM 55.6 °F 54.3 °F 96% 30.20 in 5.0 mi NE 4.6 mph - N/A   Overcast
6:55 AM 55.8 °F 54.5 °F 96% 30.21 in 5.0 mi NE 4.6 mph - N/A   Overcast
7:15 AM 55.9 °F 54.5 °F 95% 30.22 in 4.0 mi NE 3.5 mph - N/A   Overcast
7:35 AM 55.9 °F 54.5 °F 95% 30.22 in 3.0 mi Calm Calm - N/A   Overcast
7:55 AM 55.9 °F 54.7 °F 96% 30.23 in 3.0 mi NNE 4.6 mph - 0.01 in   Overcast
8:15 AM 55.8 °F 54.3 °F 95% 30.24 in 5.0 mi NE 4.6 mph - N/A   Overcast
8:35 AM 55.9 °F 54.3 °F 94% 30.25 in 4.0 mi NE 3.5 mph - N/A   Overcast
8:55 AM 56.3 °F 54.3 °F 93% 30.25 in 5.0 mi NE 5.8 mph - N/A   Overcast
9:15 AM 56.7 °F 54.1 °F 91% 30.26 in 5.0 mi NE 4.6 mph - N/A   Overcast
9:35 AM 57.2 °F 54.0 °F 89% 30.27 in 7.0 mi NE 9.2 mph - N/A   Overcast
9:55 AM 57.4 °F 54.0 °F 88% 30.28 in 7.0 mi NE 6.9 mph - N/A   Overcast
10:15 AM 57.4 °F 53.8 °F 88% 30.29 in 5.0 mi NE 6.9 mph - N/A   Overcast
10:35 AM 57.9 °F 53.8 °F 86% 30.29 in 10.0 mi ENE 6.9 mph - N/A   Overcast
10:55 AM 58.1 °F 52.7 °F 82% 30.30 in 5.0 mi East 10.4 mph - N/A   Haze
11:15 AM 58.3 °F 51.6 °F 78% 30.31 in 10.0 mi ENE 6.9 mph - N/A   Overcast
11:35 AM 58.8 °F 51.8 °F 77% 30.31 in 7.0 mi East 4.6 mph - N/A   Overcast
11:55 AM 59.0 °F 51.8 °F 77% 30.31 in 7.0 mi East 8.1 mph - N/A   Overcast
12:15 PM 58.6 °F 51.3 °F 76% 30.32 in 10.0 mi ENE 4.6 mph - N/A   Overcast
12:35 PM 59.2 °F 51.4 °F 75% 30.32 in 10.0 mi ENE 8.1 mph - 0.01 in   Overcast
12:55 PM 59.4 °F 51.1 °F 74% 30.32 in 7.0 mi East 10.4 mph - 0.01 in   Overcast
1:15 PM 59.7 °F 50.7 °F 72% 30.32 in 7.0 mi East 6.9 mph - N/A   Overcast
1:35 PM 61.5 °F 50.9 °F 68% 30.32 in 7.0 mi East 5.8 mph - N/A   Overcast
1:55 PM 61.5 °F 50.0 °F 66% 30.32 in 10.0 mi NE 4.6 mph - N/A   Overcast
2:15 PM 61.5 °F 50.7 °F 68% 30.32 in 10.0 mi East 8.1 mph - N/A   Overcast
2:35 PM 61.3 °F 50.7 °F 68% 30.31 in 10.0 mi East 4.6 mph - N/A   Overcast
2:55 PM 61.9 °F 50.7 °F 67% 30.31 in 10.0 mi ENE 3.5 mph - N/A   Overcast
3:15 PM 62.6 °F 50.0 °F 63% 30.31 in 10.0 mi NNE 6.9 mph - N/A   Overcast
3:35 PM 62.2 °F 50.2 °F 65% 30.31 in 10.0 mi NE 6.9 mph - 0.01 in   Overcast
3:55 PM 61.7 °F 50.5 °F 67% 30.31 in 7.0 mi NE 8.1 mph - 0.01 in   Overcast
4:15 PM 61.9 °F 50.4 °F 66% 30.30 in 7.0 mi ENE 6.9 mph - N/A   Overcast
4:35 PM 61.9 °F 50.4 °F 66% 30.30 in 10.0 mi ENE 5.8 mph - N/A   Overcast
4:55 PM 62.4 °F 49.6 °F 63% 30.30 in 10.0 mi NNE 5.8 mph - N/A   Overcast
5:15 PM 63.0 °F 49.1 °F 61% 30.29 in 10.0 mi NE 5.8 mph - N/A   Overcast
5:35 PM 62.8 °F 49.1 °F 61% 30.29 in 10.0 mi ENE 4.6 mph - N/A   Overcast
5:55 PM 62.6 °F 49.1 °F 61% 30.30 in 10.0 mi East 3.5 mph - N/A   Overcast
6:15 PM 62.2 °F 49.1 °F 62% 30.30 in 10.0 mi ENE 3.5 mph - N/A   Mostly Cloudy
6:35 PM 62.6 °F 48.9 °F 61% 30.30 in 10.0 mi East 3.5 mph - N/A   Overcast
6:55 PM 62.1 °F 49.6 °F 64% 30.30 in 10.0 mi East 3.5 mph - N/A   Overcast
7:15 PM 61.5 °F 50.4 °F 67% 30.30 in 10.0 mi Calm Calm - N/A   Overcast
7:35 PM 60.1 °F 50.5 °F 71% 30.30 in 10.0 mi Calm Calm - N/A   Scattered Clouds
7:55 PM 57.7 °F 50.9 °F 78% 30.29 in 10.0 mi Calm Calm - N/A   Scattered Clouds
8:15 PM 55.6 °F 51.6 °F 87% 30.29 in 7.0 mi Calm Calm - N/A   Mostly Cloudy
8:35 PM 54.3 °F 50.9 °F 88% 30.30 in 7.0 mi Calm Calm - 0.01 in   Scattered Clouds
8:55 PM 51.8 °F 49.6 °F 92% 30.30 in 7.0 mi Calm Calm - 0.01 in   Clear
9:15 PM 51.6 °F 49.8 °F 94% 30.31 in 5.0 mi Calm Calm - N/A   Clear
9:35 PM 51.4 °F 49.8 °F 94% 30.31 in 7.0 mi Calm Calm - N/A   Clear
9:55 PM 50.5 °F 49.1 °F 95% 30.31 in 7.0 mi Calm Calm - N/A   Clear
10:15 PM 50.5 °F 49.3 °F 95% 30.31 in 7.0 mi Calm Calm - N/A   Clear
10:35 PM 50.5 °F 49.3 °F 95% 30.31 in 7.0 mi Calm Calm - N/A   Clear
10:55 PM 49.3 °F 48.2 °F 96% 30.32 in 10.0 mi Calm Calm - N/A   Clear
11:15 PM 48.2 °F 47.1 °F 96% 30.32 in 10.0 mi Calm Calm - N/A   Clear
11:35 PM 48.7 °F 47.7 °F 96% 30.32 in 7.0 mi ENE 5.8 mph - N/A   Clear
11:55 PM 50.0 °F 48.7 °F 95% 30.32 in 7.0 mi ENE 8.1 mph - N/A   Clear